Radiation Dose at Monitoring Post of Fukushima Daini Nuclear Power Station
Date,Time,MP-1(microSv/h),MP-2(microSv/h),MP-3(microSv/h),MP-4(microSv/h),MP-5(microSv/h),MP-6(microSv/h),MP-7(microSv/h),Wind Direction,Wind Velocity(m/s),Rain
2022/03/03,00:00,0.160,0.148,0.232,0.222,0.225,0.126,0.081,north-northwest,2.7,No
2022/03/03,00:10,0.159,0.147,0.232,0.223,0.225,0.126,0.082,north,2.4,No
2022/03/03,00:20,0.160,0.147,0.232,0.224,0.225,0.126,0.080,north,1.8,No
2022/03/03,00:30,0.161,0.147,0.230,0.224,0.224,0.126,0.081,north-northeast,1.6,No
2022/03/03,00:40,0.160,0.148,0.231,0.224,0.225,0.127,0.081,north-northeast,1.3,No
2022/03/03,00:50,0.160,0.147,0.232,0.223,0.224,0.127,0.081,north-northeast,1.4,No
2022/03/03,01:00,0.160,0.147,0.231,0.223,0.223,0.126,0.080,north-northeast,1.6,No
2022/03/03,01:10,0.161,0.147,0.231,0.223,0.223,0.127,0.080,north-northeast,1.1,No
2022/03/03,01:20,0.160,0.147,0.230,0.223,0.225,0.127,0.080,north-northeast,1.1,No
2022/03/03,01:30,0.159,0.147,0.231,0.223,0.225,0.126,0.080,north-northeast,0.7,No
2022/03/03,01:40,0.160,0.147,0.232,0.223,0.225,0.126,0.081,east-northeast,1.0,No
2022/03/03,01:50,0.160,0.146,0.231,0.224,0.224,0.126,0.081,east-southeast,0.8,No
2022/03/03,02:00,0.159,0.147,0.232,0.224,0.224,0.125,0.081,east-southeast,1.6,No
2022/03/03,02:10,0.161,0.147,0.232,0.224,0.224,0.127,0.080,east-southeast,1.9,No
2022/03/03,02:20,0.160,0.146,0.232,0.223,0.226,0.127,0.081,southeast,2.2,No
2022/03/03,02:30,0.160,0.146,0.232,0.223,0.224,0.127,0.081,east-southeast,3.0,No
2022/03/03,02:40,0.160,0.146,0.232,0.223,0.225,0.127,0.080,southeast,2.7,No
2022/03/03,02:50,0.160,0.147,0.232,0.223,0.224,0.126,0.081,southeast,3.0,No
2022/03/03,03:00,0.160,0.146,0.232,0.223,0.224,0.127,0.080,southeast,3.0,No
2022/03/03,03:10,0.160,0.147,0.232,0.222,0.225,0.125,0.080,southeast,3.3,No
2022/03/03,03:20,0.159,0.146,0.231,0.223,0.225,0.126,0.081,southeast,3.5,No
2022/03/03,03:30,0.159,0.148,0.232,0.224,0.224,0.127,0.081,south-southeast,2.7,No
2022/03/03,03:40,0.160,0.147,0.233,0.223,0.225,0.127,0.081,south-southeast,3.2,No
2022/03/03,03:50,0.161,0.147,0.231,0.223,0.224,0.127,0.080,southeast,3.5,No
2022/03/03,04:00,0.161,0.146,0.232,0.223,0.224,0.126,0.080,south-southeast,3.5,No
2022/03/03,04:10,0.159,0.147,0.232,0.223,0.226,0.127,0.080,south-southeast,3.5,No
2022/03/03,04:20,0.160,0.148,0.233,0.223,0.223,0.126,0.080,south-southeast,3.3,No
2022/03/03,04:30,0.160,0.147,0.232,0.223,0.225,0.126,0.080,south-southeast,3.7,No
2022/03/03,04:40,0.160,0.146,0.233,0.224,0.224,0.127,0.080,south-southeast,3.8,No
2022/03/03,04:50,0.160,0.146,0.232,0.223,0.223,0.127,0.081,south-southeast,3.3,No
2022/03/03,05:00,0.160,0.147,0.231,0.222,0.223,0.126,0.081,south,2.4,No
2022/03/03,05:10,0.161,0.147,0.231,0.224,0.225,0.127,0.081,south,2.7,No
2022/03/03,05:20,0.159,0.147,0.232,0.223,0.224,0.127,0.081,south,2.9,No
2022/03/03,05:30,0.160,0.147,0.231,0.223,0.225,0.127,0.081,south,3.0,No
2022/03/03,05:40,0.160,0.147,0.232,0.224,0.225,0.127,0.081,south,3.8,No
2022/03/03,05:50,0.159,0.147,0.232,0.223,0.223,0.127,0.080,south,4.1,No
2022/03/03,06:00,0.160,0.147,0.232,0.224,0.225,0.127,0.081,south,3.8,No
2022/03/03,06:10,0.160,0.147,0.231,0.224,0.225,0.126,0.081,south,3.0,No
2022/03/03,06:20,0.160,0.147,0.231,0.223,0.225,0.126,0.081,south,4.1,No
2022/03/03,06:30,0.161,0.147,0.232,0.224,0.225,0.127,0.081,south,5.0,No
2022/03/03,06:40,0.161,0.148,0.231,0.223,0.224,0.126,0.081,south,6.6,No
2022/03/03,06:50,0.160,0.147,0.231,0.224,0.224,0.127,0.081,south,7.5,No
2022/03/03,07:00,0.161,0.146,0.231,0.224,0.225,0.126,0.080,south,7.9,No
2022/03/03,07:10,0.161,0.147,0.232,0.223,0.223,0.125,0.081,south,7.4,No
2022/03/03,07:20,0.161,0.147,0.231,0.223,0.223,0.127,0.080,south,6.6,No
2022/03/03,07:30,0.160,0.147,0.231,0.223,0.223,0.126,0.080,south,5.2,No
2022/03/03,07:40,0.160,0.145,0.232,0.223,0.224,0.126,0.080,south,6.1,No
2022/03/03,07:50,0.160,0.146,0.230,0.223,0.225,0.125,0.080,south-southeast,6.2,No
2022/03/03,08:00,0.159,0.147,0.231,0.223,0.224,0.127,0.080,south-southeast,6.1,No
2022/03/03,08:10,0.159,0.146,0.231,0.222,0.225,0.125,0.079,south-southeast,6.8,No
2022/03/03,08:20,0.160,0.147,0.232,0.222,0.225,0.126,0.080,south-southeast,5.9,No
2022/03/03,08:30,0.159,0.147,0.231,0.222,0.223,0.127,0.080,south-southeast,6.6,No
2022/03/03,08:40,0.160,0.146,0.232,0.222,0.224,0.126,0.080,south-southeast,6.1,No
2022/03/03,08:50,0.159,0.147,0.231,0.222,0.225,0.127,0.080,south-southeast,5.8,No
2022/03/03,09:00,0.159,0.146,0.231,0.224,0.225,0.126,0.080,south-southeast,6.6,No
2022/03/03,09:10,0.159,0.145,0.232,0.223,0.226,0.126,0.080,south-southeast,6.6,No
2022/03/03,09:20,0.161,0.146,0.232,0.222,0.225,0.127,0.081,south-southeast,6.0,No
2022/03/03,09:30,0.158,0.146,0.231,0.222,0.224,0.127,0.080,south-southeast,7.1,No
2022/03/03,09:40,0.160,0.146,0.231,0.222,0.225,0.126,0.080,south-southeast,5.4,No
2022/03/03,09:50,0.159,0.146,0.232,0.223,0.226,0.126,0.080,south,7.8,No
2022/03/03,10:00,0.159,0.146,0.231,0.222,0.223,0.127,0.081,south-southeast,6.8,No
2022/03/03,10:10,0.161,0.147,0.232,0.223,0.225,0.127,0.081,south-southeast,9.0,No
2022/03/03,10:20,0.159,0.147,0.231,0.223,0.226,0.126,0.081,south-southeast,8.7,No
2022/03/03,10:30,0.161,0.146,0.230,0.222,0.224,0.125,0.080,south-southeast,9.6,No
2022/03/03,10:40,0.160,0.146,0.231,0.223,0.226,0.127,0.080,south-southeast,9.1,No
2022/03/03,10:50,0.160,0.146,0.231,0.224,0.224,0.127,0.080,south-southeast,8.3,No
2022/03/03,11:00,0.160,0.147,0.230,0.223,0.226,0.126,0.080,south-southeast,4.7,No
2022/03/03,11:10,0.160,0.147,0.231,0.223,0.225,0.127,0.080,south,5.2,No
2022/03/03,11:20,0.161,0.147,0.232,0.224,0.224,0.126,0.080,south-southeast,4.1,No
2022/03/03,11:30,0.159,0.147,0.231,0.223,0.226,0.126,0.081,south-southeast,4.1,No
2022/03/03,11:40,0.159,0.146,0.231,0.223,0.224,0.126,0.080,south,3.3,No
2022/03/03,11:50,0.160,0.147,0.230,0.223,0.227,0.127,0.080,south,5.4,No
2022/03/03,12:00,0.159,0.146,0.231,0.222,0.225,0.126,0.080,south,4.0,No
2022/03/03,12:10,0.159,0.147,0.229,0.224,0.225,0.125,0.079,west,7.5,No
2022/03/03,12:20,0.158,0.146,0.231,0.221,0.224,0.127,0.081,west-northwest,8.5,No
2022/03/03,12:30,0.159,0.146,0.231,0.223,0.224,0.126,0.079,west-northwest,8.7,Yes
2022/03/03,12:40,0.159,0.147,0.230,0.223,0.223,0.126,0.081,west-northwest,8.4,Yes
2022/03/03,12:50,0.159,0.146,0.232,0.223,0.226,0.126,0.080,west-northwest,13.8,Yes
2022/03/03,13:00,0.160,0.147,0.232,0.223,0.226,0.127,0.080,west,9.7,Yes
2022/03/03,13:10,0.159,0.147,0.232,0.222,0.225,0.127,0.081,west-northwest,11.8,No
2022/03/03,13:20,0.161,0.146,0.231,0.224,0.226,0.127,0.081,west,12.1,Yes
2022/03/03,13:30,0.159,0.147,0.231,0.222,0.223,0.126,0.081,west,9.9,No
2022/03/03,13:40,0.160,0.146,0.230,0.223,0.225,0.126,0.080,west,11.5,No
2022/03/03,13:50,0.160,0.147,0.231,0.222,0.224,0.127,0.080,west-northwest,10.4,No
2022/03/03,14:00,0.159,0.147,0.232,0.223,0.226,0.127,0.081,west,9.5,No
2022/03/03,14:10,0.160,0.146,0.232,0.223,0.224,0.126,0.081,northwest,9.0,No
2022/03/03,14:20,0.159,0.147,0.231,0.224,0.223,0.127,0.080,west-northwest,14.8,No
2022/03/03,14:30,0.161,0.146,0.232,0.222,0.224,0.126,0.080,west-northwest,11.6,No
2022/03/03,14:40,0.160,0.146,0.232,0.223,0.225,0.126,0.080,west-northwest,13.2,No
2022/03/03,14:50,0.161,0.146,0.232,0.223,0.225,0.127,0.080,west-northwest,10.3,No
2022/03/03,15:00,0.159,0.146,0.232,0.223,0.226,0.127,0.080,west,11.3,No
2022/03/03,15:10,0.160,0.147,0.233,0.224,0.224,0.126,0.081,west,13.2,No
2022/03/03,15:20,0.159,0.145,0.232,0.223,0.227,0.127,0.080,west-northwest,13.1,No
2022/03/03,15:30,0.159,0.146,0.231,0.224,0.226,0.126,0.081,west-northwest,8.7,No
2022/03/03,15:40,0.160,0.147,0.232,0.224,0.225,0.127,0.081,west,8.8,No
2022/03/03,15:50,0.161,0.147,0.232,0.224,0.225,0.127,0.081,west-northwest,9.2,No
2022/03/03,16:00,0.161,0.146,0.232,0.223,0.225,0.126,0.080,west-northwest,8.5,No
2022/03/03,16:10,0.160,0.147,0.232,0.222,0.226,0.127,0.081,west-northwest,13.1,No
2022/03/03,16:20,0.161,0.147,0.232,0.224,0.227,0.126,0.080,west-northwest,7.7,No
2022/03/03,16:30,0.160,0.147,0.232,0.225,0.226,0.127,0.080,west-northwest,9.3,No
2022/03/03,16:40,0.161,0.147,0.233,0.224,0.226,0.128,0.080,west-northwest,8.4,No
2022/03/03,16:50,0.162,0.147,0.232,0.224,0.225,0.127,0.080,west,6.9,No
2022/03/03,17:00,0.160,0.146,0.233,0.224,0.225,0.127,0.080,west-northwest,6.6,No
2022/03/03,17:10,0.160,0.147,0.232,0.223,0.225,0.127,0.080,northwest,5.7,No
2022/03/03,17:20,0.160,0.147,0.232,0.223,0.227,0.127,0.080,west-northwest,5.0,No
2022/03/03,17:30,0.161,0.147,0.232,0.225,0.224,0.127,0.080,west-northwest,4.3,No
2022/03/03,17:40,0.161,0.147,0.232,0.223,0.224,0.127,0.081,west-northwest,6.6,No
2022/03/03,17:50,0.160,0.147,0.232,0.224,0.225,0.127,0.080,west-northwest,2.9,No
2022/03/03,18:00,0.160,0.147,0.233,0.223,0.225,0.127,0.080,west-northwest,6.6,No
2022/03/03,18:10,0.161,0.148,0.231,0.223,0.225,0.127,0.081,west-northwest,4.4,No
2022/03/03,18:20,0.160,0.146,0.233,0.225,0.225,0.127,0.080,west-northwest,4.3,No
2022/03/03,18:30,0.160,0.146,0.232,0.225,0.226,0.126,0.080,west-northwest,6.1,No
2022/03/03,18:40,0.160,0.146,0.232,0.224,0.225,0.127,0.081,west-northwest,7.1,No
2022/03/03,18:50,0.161,0.147,0.233,0.223,0.225,0.126,0.081,northwest,6.4,No
2022/03/03,19:00,0.161,0.147,0.232,0.225,0.226,0.127,0.081,west-northwest,6.3,No
2022/03/03,19:10,0.160,0.147,0.233,0.223,0.225,0.127,0.081,west-northwest,6.9,No
2022/03/03,19:20,0.161,0.147,0.232,0.224,0.226,0.127,0.080,west-northwest,7.0,No
2022/03/03,19:30,0.160,0.147,0.233,0.225,0.224,0.127,0.081,west-northwest,6.2,No
2022/03/03,19:40,0.161,0.147,0.231,0.224,0.226,0.127,0.080,northwest,3.0,No
2022/03/03,19:50,0.161,0.147,0.232,0.224,0.225,0.127,0.080,north-northeast,0.8,No
2022/03/03,20:00,0.161,0.147,0.232,0.224,0.225,0.127,0.080,north-northwest,1.9,No
2022/03/03,20:10,0.161,0.147,0.232,0.224,0.225,0.127,0.081,west,0.5,No
2022/03/03,20:20,0.161,0.148,0.232,0.225,0.225,0.126,0.080,south-southeast,0.5,No
2022/03/03,20:30,0.160,0.147,0.233,0.224,0.225,0.126,0.080,north-northwest,2.1,No
2022/03/03,20:40,0.160,0.147,0.233,0.223,0.225,0.127,0.081,north-northwest,4.1,No
2022/03/03,20:50,0.160,0.146,0.231,0.224,0.225,0.126,0.081,northwest,6.6,No
2022/03/03,21:00,0.161,0.147,0.232,0.224,0.224,0.126,0.081,northwest,5.5,No
2022/03/03,21:10,0.160,0.147,0.232,0.225,0.224,0.126,0.081,northwest,4.4,No
2022/03/03,21:20,0.161,0.147,0.231,0.224,0.224,0.127,0.081,northwest,3.5,No
2022/03/03,21:30,0.160,0.147,0.232,0.224,0.225,0.128,0.080,northwest,5.4,No
2022/03/03,21:40,0.161,0.147,0.232,0.224,0.225,0.127,0.080,northwest,5.1,No
2022/03/03,21:50,0.162,0.147,0.232,0.224,0.224,0.127,0.081,northwest,5.5,No
2022/03/03,22:00,0.160,0.146,0.233,0.224,0.225,0.127,0.081,northwest,5.2,No
2022/03/03,22:10,0.160,0.146,0.232,0.223,0.225,0.127,0.082,northwest,3.8,No
2022/03/03,22:20,0.161,0.146,0.232,0.224,0.224,0.127,0.081,northwest,2.1,No
2022/03/03,22:30,0.161,0.147,0.232,0.224,0.225,0.127,0.081,north,1.3,No
2022/03/03,22:40,0.160,0.147,0.231,0.224,0.225,0.126,0.081,north-northwest,1.6,No
2022/03/03,22:50,0.160,0.146,0.232,0.224,0.224,0.127,0.081,northwest,3.0,No
2022/03/03,23:00,0.160,0.147,0.231,0.224,0.224,0.126,0.081,west-northwest,4.9,No
2022/03/03,23:10,0.160,0.146,0.232,0.224,0.225,0.126,0.080,west-northwest,6.3,No
2022/03/03,23:20,0.160,0.148,0.232,0.224,0.225,0.126,0.081,west-northwest,6.6,No
2022/03/03,23:30,0.159,0.147,0.233,0.225,0.224,0.127,0.082,west-northwest,6.0,No
2022/03/03,23:40,0.160,0.147,0.234,0.225,0.225,0.127,0.081,west-northwest,6.6,No
2022/03/03,23:50,0.160,0.146,0.232,0.223,0.224,0.127,0.080,west-northwest,5.5,No
